SKW6224 KDFW-KSHV

Flight info

Callsign SKW6224
Flight time 0h 29m
Altitude 21000
Route MRSSH3 MRSSH
Aircraft CRJ9/M-SDFGIRWY/S

Departure

Time 2026-04-26 18:32
Airport Dallas Fort Worth International Airport (KDFW)

Arrival

Time 2026-04-26 19:01
Airport Shreveport Regional Airport (KSHV)
Time Latitude Longitude Altitude Speed Heading
2026-04-26 17:56 32.88797 -97.03470 614 ft 0 kts 122°
2026-04-26 18:17 32.88800 -97.03477 638 ft 4 kts 122°
2026-04-26 18:17 32.88813 -97.03502 625 ft 4 kts 110°
2026-04-26 18:17 32.88812 -97.03529 619 ft 4 kts 58°
2026-04-26 18:17 32.88793 -97.03551 621 ft 4 kts 39°
2026-04-26 18:18 32.88787 -97.03557 617 ft 1 kts 40°
2026-04-26 18:23 32.88790 -97.03555 619 ft 1 kts 40°
2026-04-26 18:23 32.88803 -97.03542 617 ft 4 kts 40°
2026-04-26 18:23 32.88831 -97.03519 622 ft 6 kts 30°
2026-04-26 18:23 32.88875 -97.03495 621 ft 6 kts 23°
2026-04-26 18:24 32.88901 -97.03481 618 ft 3 kts 25°
2026-04-26 18:24 32.88914 -97.03465 614 ft 2 kts 71°
2026-04-26 18:24 32.88918 -97.03431 621 ft 7 kts 88°
2026-04-26 18:24 32.88919 -97.03364 616 ft 10 kts 90°
2026-04-26 18:25 32.88932 -97.03324 618 ft 6 kts 28°
2026-04-26 18:25 32.88987 -97.03320 621 ft 10 kts 360°
2026-04-26 18:25 32.89065 -97.03320 621 ft 10 kts 360°
2026-04-26 18:25 32.89149 -97.03318 618 ft 14 kts 360°
2026-04-26 18:26 32.89263 -97.03319 621 ft 18 kts 360°
2026-04-26 18:26 32.89379 -97.03319 619 ft 13 kts 360°
2026-04-26 18:26 32.89484 -97.03320 614 ft 17 kts 360°
2026-04-26 18:26 32.89619 -97.03317 621 ft 22 kts 359°
2026-04-26 18:27 32.89784 -97.03319 620 ft 25 kts 359°
2026-04-26 18:27 32.89970 -97.03313 619 ft 26 kts
2026-04-26 18:27 32.90160 -97.03313 619 ft 24 kts
2026-04-26 18:27 32.90332 -97.03310 618 ft 26 kts
2026-04-26 18:28 32.90523 -97.03312 622 ft 28 kts
2026-04-26 18:28 32.90729 -97.03311 618 ft 31 kts
2026-04-26 18:28 32.90920 -97.03310 621 ft 26 kts
2026-04-26 18:28 32.91032 -97.03284 620 ft 13 kts 27°
2026-04-26 18:29 32.91127 -97.03277 619 ft 8 kts 358°
2026-04-26 18:29 32.91194 -97.03278 621 ft 12 kts
2026-04-26 18:29 32.91260 -97.03274 617 ft 11 kts
2026-04-26 18:29 32.91350 -97.03273 621 ft 15 kts 360°
2026-04-26 18:30 32.91464 -97.03267 617 ft 17 kts 23°
2026-04-26 18:30 32.91491 -97.03141 614 ft 18 kts 93°
2026-04-26 18:30 32.91493 -97.03024 614 ft 11 kts 89°
2026-04-26 18:30 32.91485 -97.02986 624 ft 1 kts 140°
2026-04-26 18:31 32.91482 -97.02985 622 ft 2 kts 170°
2026-04-26 18:31 32.91329 -97.02990 625 ft 59 kts 180°
2026-04-26 18:31 32.90644 -97.02990 614 ft 135 kts 180°
2026-04-26 18:31 32.89531 -97.03005 886 ft 172 kts 179°
2026-04-26 18:32 32.88333 -97.02929 1887 ft 176 kts 176°
2026-04-26 18:32 32.86924 -97.02897 1921 ft 238 kts 181°
2026-04-26 18:32 32.84986 -97.02967 1408 ft 312 kts 181°
2026-04-26 18:32 32.82672 -97.03013 1670 ft 348 kts 181°
2026-04-26 18:33 32.80185 -97.03055 2153 ft 372 kts 181°
2026-04-26 18:33 32.77522 -97.03059 2667 ft 392 kts 180°
2026-04-26 18:33 32.74779 -97.02567 3111 ft 410 kts 161°
2026-04-26 18:33 32.72331 -97.00761 3604 ft 421 kts 139°
2026-04-26 18:34 32.70559 -96.97975 4090 ft 430 kts 121°
2026-04-26 18:34 32.69129 -96.94785 4543 ft 445 kts 119°
2026-04-26 18:34 32.68116 -96.91254 4952 ft 464 kts 101°
2026-04-26 18:34 32.68240 -96.87494 5385 ft 438 kts 83°
2026-04-26 18:35 32.68632 -96.84082 5781 ft 400 kts 83°
2026-04-26 18:35 32.69015 -96.80900 5985 ft 375 kts 84°
2026-04-26 18:35 32.69194 -96.77928 6406 ft 349 kts 90°
2026-04-26 18:35 32.69231 -96.75137 6529 ft 325 kts 92°
2026-04-26 18:36 32.69221 -96.72441 6663 ft 337 kts 91°
2026-04-26 18:36 32.69224 -96.69632 7573 ft 338 kts 92°
2026-04-26 18:36 32.69243 -96.66908 8986 ft 323 kts 91°
2026-04-26 18:36 32.69273 -96.64264 9897 ft 329 kts 91°
2026-04-26 18:37 32.69304 -96.61527 10711 ft 335 kts 91°
2026-04-26 18:37 32.69335 -96.58732 11509 ft 341 kts 90°
2026-04-26 18:37 32.69371 -96.55894 12354 ft 347 kts 90°
2026-04-26 18:37 32.69413 -96.52996 13156 ft 353 kts 89°
2026-04-26 18:38 32.69459 -96.50048 13906 ft 359 kts 89°
2026-04-26 18:38 32.69510 -96.47065 14627 ft 364 kts 89°
2026-04-26 18:38 32.69553 -96.44051 15381 ft 368 kts 89°
2026-04-26 18:38 32.69593 -96.40983 16072 ft 373 kts 89°
2026-04-26 18:39 32.69631 -96.37884 16762 ft 378 kts 89°
2026-04-26 18:39 32.69668 -96.34738 17349 ft 387 kts 89°
2026-04-26 18:39 32.69654 -96.31448 17466 ft 409 kts 92°
2026-04-26 18:39 32.69440 -96.28012 17692 ft 426 kts 96°
2026-04-26 18:40 32.69134 -96.24462 18119 ft 436 kts 96°
2026-04-26 18:40 32.68831 -96.20871 18671 ft 440 kts 96°
2026-04-26 18:40 32.68571 -96.17227 19210 ft 444 kts 94°
2026-04-26 18:40 32.68332 -96.13597 19746 ft 448 kts 95°
2026-04-26 18:41 32.68082 -96.09887 20263 ft 453 kts 95°
2026-04-26 18:41 32.67828 -96.06133 20601 ft 462 kts 94°
2026-04-26 18:41 32.67577 -96.02270 20754 ft 475 kts 94°
2026-04-26 18:41 32.67308 -95.98301 20825 ft 489 kts 94°
2026-04-26 18:42 32.67025 -95.94222 20859 ft 503 kts 94°
2026-04-26 18:42 32.66739 -95.90033 20881 ft 514 kts 94°
2026-04-26 18:42 32.66446 -95.85787 20884 ft 517 kts 94°
2026-04-26 18:42 32.66149 -95.81529 20884 ft 520 kts 94°
2026-04-26 18:43 32.65850 -95.77244 20885 ft 523 kts 94°
2026-04-26 18:43 32.65555 -95.72934 20883 ft 525 kts 94°
2026-04-26 18:43 32.65249 -95.68595 20884 ft 527 kts 95°
2026-04-26 18:43 32.64938 -95.64257 20880 ft 529 kts 94°
2026-04-26 18:44 32.64633 -95.59893 20875 ft 531 kts 94°
2026-04-26 18:44 32.64321 -95.55530 20873 ft 532 kts 95°
2026-04-26 18:44 32.64007 -95.51194 20875 ft 533 kts 95°
2026-04-26 18:44 32.63690 -95.46751 20874 ft 534 kts 94°
2026-04-26 18:45 32.63377 -95.42412 20876 ft 535 kts 95°
2026-04-26 18:45 32.63054 -95.38004 20875 ft 536 kts 95°
2026-04-26 18:45 32.62731 -95.33591 20877 ft 537 kts 94°
2026-04-26 18:45 32.62410 -95.29167 20882 ft 538 kts 95°
2026-04-26 18:46 32.62089 -95.24855 20872 ft 505 kts 95°
2026-04-26 18:46 32.61788 -95.20826 20674 ft 478 kts 95°
2026-04-26 18:46 32.61504 -95.16971 20292 ft 460 kts 95°
2026-04-26 18:46 32.61226 -95.13249 19908 ft 445 kts 95°
2026-04-26 18:47 32.60952 -95.09642 19533 ft 432 kts 95°
2026-04-26 18:47 32.60687 -95.06136 19167 ft 421 kts 95°
2026-04-26 18:47 32.60431 -95.02713 18800 ft 412 kts 95°
2026-04-26 18:47 32.60179 -94.99360 18460 ft 404 kts 95°
2026-04-26 18:48 32.59925 -94.96078 18105 ft 396 kts 95°
2026-04-26 18:48 32.59680 -94.92850 17700 ft 390 kts 95°
2026-04-26 18:48 32.59435 -94.89668 17310 ft 384 kts 95°
2026-04-26 18:48 32.59196 -94.86575 16935 ft 379 kts 95°
2026-04-26 18:49 32.58966 -94.83487 16560 ft 374 kts 95°
2026-04-26 18:49 32.58742 -94.80432 16188 ft 369 kts 95°
2026-04-26 18:49 32.58529 -94.77411 15817 ft 365 kts 94°
2026-04-26 18:49 32.58339 -94.74420 15439 ft 361 kts 94°
2026-04-26 18:50 32.58158 -94.71464 15068 ft 358 kts 94°
2026-04-26 18:50 32.57979 -94.68535 14721 ft 354 kts 94°
2026-04-26 18:50 32.57802 -94.65632 14370 ft 351 kts 93°
2026-04-26 18:50 32.57627 -94.62774 14165 ft 343 kts 93°
2026-04-26 18:51 32.57454 -94.59992 14064 ft 333 kts 93°
2026-04-26 18:51 32.57286 -94.57302 14012 ft 322 kts 93°
2026-04-26 18:51 32.57184 -94.55573 13997 ft 314 kts 92°
2026-04-26 18:51 32.57025 -94.52199 13976 ft 300 kts 91°
2026-04-26 18:52 32.56955 -94.50577 13966 ft 294 kts 91°
2026-04-26 18:52 32.56855 -94.48197 13964 ft 284 kts 91°
2026-04-26 18:52 32.56763 -94.45890 13955 ft 276 kts 91°
2026-04-26 18:52 32.56672 -94.43649 13952 ft 267 kts 91°
2026-04-26 18:53 32.56582 -94.41481 13948 ft 259 kts 91°
2026-04-26 18:53 32.56492 -94.39379 13955 ft 252 kts 91°
2026-04-26 18:53 32.56404 -94.37339 13947 ft 244 kts 91°
2026-04-26 18:53 32.56319 -94.35347 13894 ft 238 kts 91°
2026-04-26 18:54 32.56236 -94.33450 13867 ft 231 kts 91°
2026-04-26 18:54 32.56151 -94.31561 13727 ft 232 kts 91°
2026-04-26 18:54 32.56065 -94.29610 13408 ft 240 kts 91°
2026-04-26 18:54 32.55983 -94.27624 13167 ft 244 kts 91°
2026-04-26 18:55 32.55904 -94.25583 12850 ft 252 kts 91°
2026-04-26 18:55 32.55828 -94.23479 12542 ft 259 kts 91°
2026-04-26 18:55 32.55755 -94.21310 12156 ft 268 kts 91°
2026-04-26 18:55 32.55688 -94.19063 11734 ft 279 kts 92°
2026-04-26 18:56 32.55645 -94.16709 11325 ft 292 kts 91°
2026-04-26 18:56 32.55616 -94.14259 10918 ft 302 kts 91°
2026-04-26 18:56 32.55597 -94.11734 10508 ft 310 kts 91°
2026-04-26 18:56 32.55585 -94.09136 9926 ft 322 kts 91°
2026-04-26 18:57 32.55583 -94.06439 9147 ft 331 kts 91°
2026-04-26 18:57 32.55588 -94.04609 8456 ft 340 kts 91°
2026-04-26 18:57 32.55622 -94.00797 7123 ft 340 kts 91°
2026-04-26 18:57 32.55663 -93.98099 6092 ft 317 kts 91°
2026-04-26 18:58 32.55717 -93.95508 4885 ft 315 kts 91°
2026-04-26 18:58 32.55784 -93.92941 3980 ft 305 kts 91°
2026-04-26 18:58 32.55602 -93.90554 3534 ft 277 kts 111°
2026-04-26 18:58 32.54650 -93.88755 3345 ft 244 kts 141°
2026-04-26 18:59 32.53302 -93.87870 3321 ft 200 kts 161°
2026-04-26 18:59 32.52072 -93.87390 3092 ft 179 kts 167°
2026-04-26 18:59 32.50861 -93.87080 2530 ft 170 kts 169°
2026-04-26 18:59 32.49799 -93.86822 2139 ft 146 kts 170°
2026-04-26 19:00 32.48813 -93.86501 1505 ft 149 kts 160°
2026-04-26 19:00 32.47954 -93.85858 1216 ft 144 kts 144°
2026-04-26 19:00 32.47192 -93.85106 849 ft 146 kts 142°
2026-04-26 19:00 32.46404 -93.84390 581 ft 140 kts 146°
2026-04-26 19:01 32.45631 -93.83691 385 ft 138 kts 148°
2026-04-26 19:01 32.44909 -93.83053 233 ft 113 kts 148°
2026-04-26 19:01 32.44376 -93.82592 233 ft 80 kts 143°
2026-04-26 19:01 32.44167 -93.82372 228 ft 22 kts 114°
2026-04-26 19:02 32.44199 -93.82276 228 ft 12 kts 46°
2026-04-26 19:02 32.44267 -93.82283 227 ft 11 kts 324°
2026-04-26 19:02 32.44323 -93.82335 228 ft 10 kts 321°
2026-04-26 19:02 32.44357 -93.82367 230 ft 9 kts 321°
2026-04-26 19:03 32.44421 -93.82426 233 ft 9 kts 322°
2026-04-26 19:03 32.44476 -93.82476 234 ft 11 kts 324°
2026-04-26 19:03 32.44550 -93.82539 235 ft 13 kts 324°
2026-04-26 19:03 32.44623 -93.82601 236 ft 13 kts 322°
2026-04-26 19:04 32.44701 -93.82673 235 ft 16 kts 322°
2026-04-26 19:04 32.44803 -93.82767 232 ft 21 kts 322°
2026-04-26 19:04 32.44923 -93.82870 235 ft 22 kts 325°
2026-04-26 19:04 32.45047 -93.82982 239 ft 22 kts 323°
2026-04-26 19:05 32.45166 -93.83026 247 ft 7 kts 42°
2026-04-26 19:05 32.45207 -93.82988 249 ft 8 kts 22°
2026-04-26 19:05 32.45238 -93.82981 250 ft 0 kts